JAL86 ZSPD-RJTT

Flight info

Callsign JAL86
Flight time N/A
Altitude 37000
Route LAMEN A593 SADLI Y590 BEDAR Y591 FUE Y23 ARTIC Y71 XAC
Aircraft B738/M-SDE2E3FGHIRWXY/LB1

Departure

Time 2026-05-04 05:48
Airport Shanghai Pudong International Airport (ZSPD)

Arrival

Time N/A
Airport Tokyo Haneda International Airport (RJTT)
Time Latitude Longitude Altitude Speed Heading
2026-05-04 05:18 31.14148 121.80974 21 ft 0 kts 72°
2026-05-04 05:31 31.14147 121.80970 21 ft 2 kts 72°
2026-05-04 05:31 31.14143 121.80953 21 ft 2 kts 72°
2026-05-04 05:32 31.14138 121.80936 21 ft 2 kts 72°
2026-05-04 05:32 31.14135 121.80926 21 ft 1 kts 73°
2026-05-04 05:32 31.14127 121.80911 21 ft 2 kts 34°
2026-05-04 05:33 31.14104 121.80906 21 ft 1 kts 343°
2026-05-04 05:33 31.14098 121.80908 21 ft 0 kts 341°
2026-05-04 05:35 31.14102 121.80907 21 ft 1 kts 342°
2026-05-04 05:35 31.14135 121.80895 21 ft 8 kts 343°
2026-05-04 05:36 31.14200 121.80870 21 ft 9 kts 343°
2026-05-04 05:36 31.14253 121.80834 21 ft 8 kts 293°
2026-05-04 05:36 31.14246 121.80771 21 ft 7 kts 254°
2026-05-04 05:36 31.14231 121.80715 21 ft 6 kts 251°
2026-05-04 05:37 31.14217 121.80667 21 ft 5 kts 252°
2026-05-04 05:37 31.14206 121.80626 21 ft 4 kts 252°
2026-05-04 05:37 31.14197 121.80595 21 ft 3 kts 252°
2026-05-04 05:38 31.14188 121.80563 21 ft 0 kts 252°
2026-05-04 05:38 31.14187 121.80560 21 ft 1 kts 252°
2026-05-04 05:38 31.14179 121.80530 21 ft 6 kts 252°
2026-05-04 05:38 31.14160 121.80461 21 ft 11 kts 252°
2026-05-04 05:39 31.14132 121.80363 21 ft 13 kts 251°
2026-05-04 05:39 31.14077 121.80165 21 ft 12 kts 251°
2026-05-04 05:39 31.14053 121.80079 21 ft 11 kts 252°
2026-05-04 05:40 31.14010 121.79921 21 ft 9 kts 252°
2026-05-04 05:40 31.13990 121.79855 21 ft 8 kts 252°
2026-05-04 05:40 31.13974 121.79797 21 ft 7 kts 252°
2026-05-04 05:41 31.13947 121.79756 21 ft 6 kts 199°
2026-05-04 05:41 31.13909 121.79763 21 ft 5 kts 165°
2026-05-04 05:41 31.13879 121.79774 21 ft 3 kts 162°
2026-05-04 05:41 31.13858 121.79781 21 ft 2 kts 162°
2026-05-04 05:42 31.13843 121.79787 21 ft 4 kts 161°
2026-05-04 05:42 31.13786 121.79809 21 ft 10 kts 162°
2026-05-04 05:42 31.13716 121.79836 21 ft 9 kts 161°
2026-05-04 05:42 31.13654 121.79859 21 ft 8 kts 162°
2026-05-04 05:43 31.13598 121.79880 21 ft 7 kts 162°
2026-05-04 05:43 31.13536 121.79903 21 ft 11 kts 162°
2026-05-04 05:43 31.13448 121.79936 21 ft 14 kts 162°
2026-05-04 05:45 31.12765 121.80101 21 ft 8 kts 251°
2026-05-04 05:45 31.12761 121.80089 21 ft 8 kts 251°
2026-05-04 05:47 31.12787 121.79857 21 ft 10 kts 342°
2026-05-04 05:47 31.12933 121.79802 21 ft 45 kts 342°
2026-05-04 05:47 31.13430 121.79613 21 ft 101 kts 342°
2026-05-04 05:48 31.14256 121.79301 21 ft 146 kts 342°
2026-05-04 05:48 31.15367 121.78887 38 ft 181 kts 345°
2026-05-04 05:48 31.16614 121.78368 271 ft 197 kts 341°
2026-05-04 05:48 31.17859 121.77769 934 ft 191 kts 338°
2026-05-04 05:49 31.19105 121.77191 1326 ft 203 kts 340°
2026-05-04 05:49 31.20518 121.76642 1624 ft 219 kts 340°
2026-05-04 05:49 31.21904 121.76070 2436 ft 206 kts 338°
2026-05-04 05:49 31.23244 121.75504 2975 ft 209 kts 342°
2026-05-04 05:51 31.33563 121.72044 6015 ft 262 kts 355°
2026-05-04 05:51 31.35276 121.72419 6999 ft 257 kts 22°
2026-05-04 05:52 31.36610 121.73859 7605 ft 272 kts 57°
2026-05-04 05:52 31.37095 121.76035 8182 ft 286 kts 88°
2026-05-04 05:52 31.36861 121.78339 8821 ft 290 kts 96°
2026-05-04 05:52 31.36614 121.80714 9346 ft 294 kts 89°
2026-05-04 05:53 31.36640 121.83109 9930 ft 297 kts 82°
2026-05-04 05:54 31.44525 121.99631 12368 ft 384 kts 56°
2026-05-04 05:55 31.45890 122.02354 12966 ft 390 kts 57°
2026-05-04 05:55 31.47261 122.05165 13546 ft 396 kts 57°
2026-05-04 05:55 31.48610 122.07976 14140 ft 401 kts 58°
2026-05-04 05:55 31.49981 122.10847 14852 ft 404 kts 58°
2026-05-04 05:56 31.51359 122.13729 15469 ft 409 kts 58°
2026-05-04 05:56 31.52764 122.16659 15767 ft 413 kts 58°
2026-05-04 05:56 31.54172 122.19589 15785 ft 412 kts 58°
2026-05-04 05:56 31.55560 122.22474 15781 ft 409 kts 58°
2026-05-04 05:57 31.56975 122.25416 15790 ft 411 kts 58°
2026-05-04 05:57 31.58379 122.28334 15792 ft 410 kts 58°
2026-05-04 05:57 31.59789 122.31271 15788 ft 410 kts 58°
2026-05-04 05:57 31.61124 122.34186 15790 ft 412 kts 61°
2026-05-04 05:58 31.62252 122.37329 15789 ft 414 kts 69°
2026-05-04 05:58 31.63034 122.40558 15795 ft 415 kts 75°
2026-05-04 05:58 31.63613 122.43906 15795 ft 416 kts 78°
2026-05-04 05:58 31.64071 122.47228 15792 ft 416 kts 79°
2026-05-04 05:59 31.64484 122.50593 15794 ft 416 kts 80°
2026-05-04 05:59 31.64866 122.53804 15792 ft 417 kts 80°
2026-05-04 05:59 31.65274 122.57193 15795 ft 417 kts 80°
2026-05-04 05:59 31.65689 122.60565 15792 ft 416 kts 79°
2026-05-04 06:00 31.66069 122.63588 15792 ft 417 kts 79°
2026-05-04 06:00 31.66508 122.66995 16137 ft 427 kts 79°
2026-05-04 06:00 31.66954 122.70413 17000 ft 424 kts 79°
2026-05-04 06:00 31.67406 122.73850 17637 ft 428 kts 79°
2026-05-04 06:01 31.67860 122.77309 18225 ft 432 kts 80°
2026-05-04 06:01 31.68322 122.80784 18668 ft 439 kts 80°
2026-05-04 06:03 31.71778 123.06463 21627 ft 484 kts 81°
2026-05-04 06:03 31.72298 123.10384 21990 ft 491 kts 82°
2026-05-04 06:05 31.76065 123.39115 24808 ft 524 kts 82°
2026-05-04 06:05 31.76664 123.47662 25588 ft 528 kts 95°
2026-05-04 06:05 31.76300 123.51933 26011 ft 526 kts 104°
2026-05-04 06:06 31.75473 123.56097 26433 ft 523 kts 111°
2026-05-04 06:06 31.74342 123.60166 26819 ft 523 kts 116°
2026-05-04 06:06 31.73033 123.64216 27100 ft 527 kts 118°
2026-05-04 06:06 31.71676 123.68160 27544 ft 527 kts 119°
2026-05-04 06:07 31.70276 123.72168 28125 ft 525 kts 120°
2026-05-04 06:07 31.68920 123.76088 28930 ft 516 kts 120°
2026-05-04 06:07 31.67610 123.79941 29763 ft 508 kts 120°
2026-05-04 06:07 31.66316 123.83795 30256 ft 508 kts 119°
2026-05-04 06:08 31.65025 123.87670 30569 ft 511 kts 119°
2026-05-04 06:08 31.63786 123.91608 30907 ft 516 kts 116°
2026-05-04 06:08 31.62748 123.95669 31246 ft 523 kts 111°
2026-05-04 06:08 31.62019 123.99859 31656 ft 529 kts 105°
2026-05-04 06:09 31.61623 124.04109 32174 ft 530 kts 99°
2026-05-04 06:09 31.61560 124.08433 32772 ft 529 kts 92°
2026-05-04 06:11 31.68920 124.37407 35205 ft 532 kts 70°
2026-05-04 06:11 31.70132 124.41535 35464 ft 532 kts 72°
2026-05-04 06:13 31.76843 124.71203 36765 ft 545 kts 77°
2026-05-04 06:14 31.82031 124.97186 37114 ft 539 kts 87°
2026-05-04 06:14 31.82217 125.01534 37109 ft 536 kts 95°
2026-05-04 06:15 31.81495 125.10201 37109 ft 530 kts 105°
2026-05-04 06:15 31.80176 125.18681 37109 ft 528 kts 108°
2026-05-04 06:16 31.78694 125.27199 37109 ft 529 kts 108°
2026-05-04 06:16 31.77230 125.35625 37111 ft 527 kts 108°
2026-05-04 06:17 31.75787 125.44102 37112 ft 529 kts 108°
2026-05-04 06:17 31.74379 125.52499 37110 ft 527 kts 108°
2026-05-04 06:18 31.73089 125.60973 37105 ft 534 kts 102°
2026-05-04 06:20 31.78506 125.95880 37114 ft 547 kts 76°
2026-05-04 06:21 31.83327 126.17287 37113 ft 548 kts 77°
2026-05-04 06:22 31.85197 126.25916 37116 ft 546 kts 77°
2026-05-04 06:25 31.98491 126.86889 37112 ft 551 kts 78°
2026-05-04 06:26 32.00392 126.95603 37111 ft 551 kts 78°
2026-05-04 06:26 32.02306 127.04426 37113 ft 552 kts 77°
2026-05-04 06:27 32.08830 127.25671 37110 ft 554 kts 65°
2026-05-04 06:28 32.12058 127.33941 37108 ft 552 kts 64°
2026-05-04 06:28 32.15260 127.42176 37105 ft 554 kts 65°
2026-05-04 06:29 32.18417 127.50468 37096 ft 554 kts 66°
2026-05-04 06:29 32.21539 127.58817 37101 ft 553 kts 65°
2026-05-04 06:30 32.24630 127.67117 37095 ft 553 kts 66°
2026-05-04 06:30 32.27735 127.75475 37094 ft 555 kts 66°
2026-05-04 06:31 32.30828 127.83812 37091 ft 554 kts 66°
2026-05-04 06:31 32.33928 127.92192 37091 ft 555 kts 66°
2026-05-04 06:33 32.46244 128.25719 37071 ft 555 kts 66°
2026-05-04 06:34 32.49328 128.34132 37073 ft 558 kts 67°
2026-05-04 06:34 32.52394 128.42528 37070 ft 556 kts 66°
2026-05-04 06:36 32.64554 128.76135 37067 ft 559 kts 66°
2026-05-04 06:37 32.67318 128.84706 37065 ft 556 kts 74°
2026-05-04 06:37 32.68809 128.90799 37063 ft 558 kts 78°
2026-05-04 06:38 32.70607 128.99611 37054 ft 558 kts 80°
2026-05-04 06:40 32.77541 129.34967 37049 ft 557 kts 79°
2026-05-04 06:40 32.79354 129.43936 37049 ft 556 kts 79°
2026-05-04 06:41 32.81142 129.52823 37048 ft 555 kts 79°
2026-05-04 06:41 32.82925 129.61746 37054 ft 555 kts 79°
2026-05-04 06:42 32.84694 129.70633 37054 ft 553 kts 80°
2026-05-04 06:44 32.91542 130.05856 37053 ft 552 kts 81°
2026-05-04 06:44 32.93258 130.14769 37051 ft 551 kts 80°
2026-05-04 06:45 32.94963 130.23665 37043 ft 554 kts 81°
2026-05-04 06:45 32.96662 130.32585 37038 ft 551 kts 81°
2026-05-04 06:46 32.98358 130.41524 37027 ft 554 kts 80°
2026-05-04 06:46 33.00059 130.50516 37020 ft 553 kts 81°
2026-05-04 06:48 33.06771 130.86375 37007 ft 556 kts 81°
2026-05-04 06:50 33.13400 131.22356 36996 ft 556 kts 82°
2026-05-04 06:51 33.15029 131.31317 36988 ft 555 kts 82°
2026-05-04 06:51 33.16651 131.40254 36988 ft 553 kts 81°
2026-05-04 06:52 33.18275 131.49225 36990 ft 554 kts 81°
2026-05-04 06:52 33.19890 131.58250 36984 ft 555 kts 81°
2026-05-04 06:53 33.21551 131.67241 36986 ft 556 kts 79°
2026-05-04 06:53 33.23870 131.76109 36982 ft 559 kts 72°
2026-05-04 06:54 33.26709 131.84735 36979 ft 560 kts 68°
2026-05-04 06:54 33.29724 131.93315 36972 ft 562 kts 69°
2026-05-04 06:55 33.32762 132.01981 36967 ft 562 kts 69°
2026-05-04 06:55 33.35716 132.10585 36968 ft 561 kts 69°
2026-05-04 06:57 33.47674 132.46327 36973 ft 583 kts 70°
2026-05-04 06:58 33.50708 132.55431 36974 ft 586 kts 70°
2026-05-04 06:58 33.53718 132.64491 36971 ft 585 kts 70°
2026-05-04 06:59 33.56708 132.73540 36972 ft 585 kts 70°
2026-05-04 06:59 33.59704 132.82636 36974 ft 586 kts 70°
2026-05-04 07:01 33.70078 133.19525 36947 ft 582 kts 79°
2026-05-04 07:02 33.72210 133.28909 36943 ft 582 kts 78°
2026-05-04 07:02 33.74386 133.38318 36940 ft 584 kts 77°
2026-05-04 07:03 33.76597 133.47708 36939 ft 581 kts 77°
2026-05-04 07:03 33.78814 133.57066 36936 ft 583 kts 77°
2026-05-04 07:04 33.81050 133.66492 36933 ft 584 kts 78°
2026-05-04 07:04 33.83263 133.75853 36923 ft 584 kts 78°
2026-05-04 07:05 33.85490 133.85292 36922 ft 581 kts 77°
2026-05-04 07:05 33.87692 133.94681 36921 ft 584 kts 78°
2026-05-04 07:06 33.90962 134.08725 36920 ft 584 kts 77°
2026-05-04 07:07 33.93147 134.18182 36924 ft 584 kts 78°
2026-05-04 07:09 34.01805 134.55916 36900 ft 582 kts 77°
2026-05-04 07:09 34.03943 134.65324 36892 ft 583 kts 78°
2026-05-04 07:10 34.06094 134.74832 36891 ft 583 kts 78°
2026-05-04 07:12 34.14563 135.12617 36876 ft 586 kts 79°
2026-05-04 07:12 34.16637 135.21941 36875 ft 583 kts 79°
2026-05-04 07:13 34.18748 135.31479 36875 ft 581 kts 78°
2026-05-04 07:13 34.20828 135.40927 36873 ft 581 kts 79°
2026-05-04 07:14 34.25980 135.64478 36860 ft 582 kts 79°
2026-05-04 07:15 34.28036 135.73933 36860 ft 580 kts 80°
2026-05-04 07:15 34.30093 135.83461 36857 ft 581 kts 80°
2026-05-04 07:16 34.32116 135.92854 36852 ft 576 kts 79°
2026-05-04 07:16 34.34148 136.02325 36849 ft 580 kts 80°
2026-05-04 07:17 34.35155 136.07034 36709 ft 576 kts 79°
2026-05-04 07:17 34.36145 136.11658 36403 ft 567 kts 79°
2026-05-04 07:17 34.37129 136.16257 36103 ft 557 kts 79°
2026-05-04 07:17 34.38085 136.20731 35807 ft 548 kts 79°
2026-05-04 07:18 34.39028 136.25153 35511 ft 541 kts 79°
2026-05-04 07:18 34.39966 136.29564 35217 ft 539 kts 80°
2026-05-04 07:18 34.40892 136.33942 34925 ft 540 kts 80°
2026-05-04 07:18 34.41821 136.38358 34627 ft 538 kts 80°
2026-05-04 07:19 34.42743 136.42744 34326 ft 535 kts 80°
2026-05-04 07:19 34.43656 136.47080 34028 ft 532 kts 80°
2026-05-04 07:19 34.44568 136.51419 33730 ft 529 kts 80°
2026-05-04 07:19 34.45468 136.55719 33440 ft 529 kts 79°
2026-05-04 07:20 34.46376 136.60065 33142 ft 528 kts 80°
2026-05-04 07:20 34.47272 136.64359 32875 ft 524 kts 80°
2026-05-04 07:20 34.48155 136.68591 32605 ft 520 kts 82°
2026-05-04 07:20 34.49046 136.72871 32335 ft 519 kts 81°
2026-05-04 07:22 34.53930 137.02371 30477 ft 497 kts 95°
2026-05-04 07:22 34.54060 137.06573 30210 ft 493 kts 97°
2026-05-04 07:23 34.54115 137.10728 29942 ft 489 kts 98°
2026-05-04 07:23 34.54139 137.14790 29681 ft 485 kts 99°
2026-05-04 07:23 34.54148 137.18884 29420 ft 485 kts 98°
2026-05-04 07:23 34.54149 137.22971 29159 ft 485 kts 98°
2026-05-04 07:24 34.54154 137.27060 28895 ft 482 kts 98°
2026-05-04 07:24 34.54164 137.31105 28645 ft 480 kts 98°
2026-05-04 07:24 34.54176 137.35172 28391 ft 479 kts 99°
2026-05-04 07:24 34.54191 137.39134 28136 ft 475 kts 97°
2026-05-04 07:25 34.54208 137.43175 27887 ft 475 kts 98°
2026-05-04 07:26 34.54319 137.70731 26122 ft 461 kts 99°
2026-05-04 07:27 34.54330 137.74612 25868 ft 459 kts 98°
2026-05-04 07:27 34.54336 137.78519 25616 ft 458 kts 99°
2026-05-04 07:27 34.54342 137.82333 25367 ft 455 kts 99°
2026-05-04 07:27 34.54344 137.86154 25116 ft 455 kts 98°
2026-05-04 07:28 34.54345 137.89978 24866 ft 453 kts 99°
2026-05-04 07:28 34.54351 137.93805 24607 ft 450 kts 98°
2026-05-04 07:28 34.54355 137.97578 24357 ft 452 kts 98°
2026-05-04 07:28 34.54357 138.01401 24103 ft 450 kts 99°
2026-05-04 07:29 34.54358 138.05144 23854 ft 446 kts 99°
2026-05-04 07:29 34.54354 138.08893 23613 ft 445 kts 99°
2026-05-04 07:29 34.54343 138.12624 23375 ft 446 kts 99°
2026-05-04 07:29 34.54332 138.16376 23125 ft 443 kts 98°
2026-05-04 07:30 34.54323 138.20103 22886 ft 441 kts 99°
2026-05-04 07:30 34.54316 138.23791 22635 ft 436 kts 98°
2026-05-04 07:30 34.54305 138.27475 22407 ft 438 kts 99°
2026-05-04 07:30 34.54292 138.31133 22169 ft 433 kts 98°
2026-05-04 07:31 34.54324 138.34796 21944 ft 436 kts 95°
2026-05-04 07:31 34.54622 138.38478 21700 ft 444 kts 83°
2026-05-04 07:33 34.63924 138.62013 20072 ft 437 kts 63°
2026-05-04 07:33 34.65308 138.65285 19833 ft 436 kts 63°
2026-05-04 07:33 34.66690 138.68581 19609 ft 433 kts 64°
2026-05-04 07:33 34.68036 138.71819 19365 ft 432 kts 63°
2026-05-04 07:34 34.69390 138.75092 19122 ft 430 kts 65°
2026-05-04 07:34 34.70587 138.78416 18892 ft 430 kts 73°
2026-05-04 07:34 34.71356 138.81892 18662 ft 422 kts 86°
2026-05-04 07:34 34.71642 138.85402 18434 ft 416 kts 94°
2026-05-04 07:35 34.71706 138.88879 18207 ft 413 kts 98°
2026-05-04 07:35 34.71675 138.92329 17966 ft 409 kts 98°
2026-05-04 07:35 34.71613 138.95844 17731 ft 410 kts 99°
2026-05-04 07:35 34.71556 138.99240 17497 ft 406 kts 98°
2026-05-04 07:36 34.71511 139.02661 17264 ft 403 kts 99°
2026-05-04 07:36 34.71475 139.06096 17033 ft 405 kts 97°